sat.trackr.live / text

‹ back to catalog

THURAYA-3

NORAD 32404 · 2008-001A

PAYLOAD ACTIVE UNKNOWN

§ Identity

Operator
Country
UAE
Launch date
2008-01-15
Launch site
SEAL
Launch vehicle
Mass (kg)
RCS (m²)
7.96

Purposes: comms

External: N2YO · Heavens-Above · Gunter

§ Orbital elements

Epoch: 2026-05-22T19:02:21.628032Z

Period
1,436.96 min
Inclination
5.9489°
Eccentricity
0.0003059
Mean motion
1.00211708 rev/d
Perigee alt
35,790.5 km
Apogee alt
35,816.3 km
Semi-major
42,181.6 km
B*
0.0000e+0
RAAN
35.7739°
Arg perigee
119.6380°
Mean anomaly
108.9740°
Rev number
6,723

§ Raw data

THURAYA-31 32404U 08001A   26142.79330588 -.00000299  00000+0  00000+0 0  99992 32404   5.9489  35.7739 0003059 119.6380 108.9740  1.00211708 67236

JSON: /api/v1/satellites/32404 · /tle

For live sub-satellite position, see the globe view (requires WebGL).

§ Visibility from observer

Set your observer location to see the next 7 days of passes ≥ 10°. The values pass through the URL so the page stays shareable.

No JS? Fill the form by hand. The geolocation button needs JavaScript.